CMS-02 (GSAT-24)

Last updated on Mon Sep 07 2026 00:03:01 GMT+0000 (Coordinated Universal Time)

1 52903U 22067A 26249.39440134 -.00000179 00000+0 00000+0 0 9993 2 52903 0.0457 267.3335 0002046 5.3620 297.7609 1.00269416 15425
UTC large
Height (km)
Speed (km/s)
/
Latitude / Longitude
Inclination (degrees)
Orbital Period (minutes)
Azimuth
Elevation
Range (km)
Doppler Factor

Next 0 passes for location: London (51.5072 / 0.1276)

No passes found over London.
CMS-02 (GSAT-24)